Zurück zum Katalog

FAISAT

AktivKommunikationPO
NORAD 23465·PAYLOAD·🇺🇸 United States

Gestartet Jan 24, 1995 von Plesetsk Cosmodrome

Loading…

Nächste Überflüge (nächste 24 Stunden)

TLE

AktuellSource: Space-Track

Epoche: Sep 14, 2026, 14:50 UTC

1 23465U 95002C   26257.61830590  .00000039  00000-0  26403-4 0  9991
2 23465  82.9286 317.1545 0036088 280.2809 244.7840 13.72028243584117

Verfolge FAISAT in Echtzeit mit AllMySat

Download on the App Store